This demonstration page uses our WeatherBlox Daily Observations layout. Learn more.

36.17497, -115.13722

Hourly Observations for January 8, 2018

Temp ( °F °C ) Dew Point ( °F °C ) Humidity (%) Winds ( mph kmh ) Pressure ( in mb ) Visibility ( mi km ) Precip ( " mm )
12:53 am 00:53 Clear 49 9.4 27 -2.8 43 43 N 3 6 30.14 1021 10 16.0934 0 0
1:53 am 01:53 Clear 49 9.4 29 -1.7 46 46 NW 3 6 30.13 1020 10 16.0934 0 0
2:53 am 02:53 Clear 48 8.9 30 -1.1 50 50 N 5 7 30.11 1020 10 16.0934 0 0
3:53 am 03:53 Clear 48 8.9 28 -2.2 46 46 N 8 13 30.1 1019 10 16.0934 0 0
4:53 am 04:53 Clear 51 10.6 28 -2.2 41 41 Calm 30.1 1019 10 16.0934 0 0
5:53 am 05:53 Mostly Cloudy 50 10 28 -2.2 43 43 NNE 6 9 30.11 1020 10 16.0934 0 0
6:53 am 06:53 Cloudy 50 10 29 -1.7 44 44 Calm 30.12 1020 10 16.0934 0 0
7:53 am 07:53 Cloudy 51 10.6 29 -1.7 43 43 Calm 30.13 1020 10 16.0934 0 0
8:53 am 08:53 Cloudy 52 11.1 30 -1.1 43 43 Calm 30.14 1021 10 16.0934 0 0
9:53 am 09:53 Cloudy 53 11.7 29 -1.7 40 40 S 5 7 30.14 1021 10 16.0934 0 0
10:53 am 10:53 Cloudy with Light Rain 53 11.7 34 1.1 48 48 ESE 3 6 30.13 1020 10 16.0934 0 0.0254
11:53 am 11:53 Mostly Cloudy 54 12.2 35 1.7 49 49 SE 3 6 30.11 1020 10 16.0934 0 0.0254
12:53 pm 12:53 Cloudy 54 12.2 35 1.7 49 49 SE 6 9 30.08 1019 10 16.0934 0 0.0254
1:53 pm 13:53 Cloudy 54 12.2 36 2.2 51 51 SE 3 6 30.05 1018 10 16.0934 0 0
2:53 pm 14:53 Cloudy 54 12.2 38 3.3 55 55 SSW 7 11 30.06 1018 10 16.0934 0 0
3:53 pm 15:53 Cloudy with Light Rain 53 11.7 42 5.6 66 66 SW 3 6 30.07 1018 10 16.0934 0.01 0.254
4:53 pm 16:53 Cloudy with Light Rain 51 10.6 43 6.1 74 74 W 3 6 30.07 1018 10 16.0934 0.04 1.016
5:53 pm 17:53 Cloudy with Light Rain 51 10.6 45 7.2 80 80 W 5 7 30.07 1018 10 16.0934 0.02 0.508
6:53 pm 18:53 Cloudy with Light Rain 50 10 45 7.2 83 83 Calm 30.06 1018 10 16.0934 0.03 0.762
7:53 pm 19:53 Cloudy with Light Rain 50 10 46 7.8 86 86 WSW 5 7 30.05 1018 10 16.0934 0.01 0.254
8:53 pm 20:53 Cloudy with Rain 50 10 46 7.8 86 86 SW 6 9 30.06 1018 5 8.0467 0.06 1.524
9:53 pm 21:53 Cloudy with Light Rain 49 9.4 46 7.8 90 90 SSW 3 6 30.05 1018 10 16.0934 0.04 1.016
10:53 pm 22:53 Cloudy 48 8.9 47 8.3 96 96 SSE 5 7 30.02 1017 10 16.0934 0.01 0.254
11:53 pm 23:53 Cloudy 48 8.9 47 8.3 96 96 Calm 30.01 1016 10 16.0934 0 0

Powered by AerisWeather